STARLINK-36438, 67625

Orbit data source: Space-Track

STARLINK-36438, 67625 is a payload satellite owned by SpaceX/Seattle (US) in LEO that was launched on Fri, 30 Jan 2026 UTC via an FALCON 9 launch vehicle from the Air Force Eastern Test Range (AFETR). Payload-class satellites include a variety of spacecraft equipped with specific instruments for various scientific and technological missions. These include communications satellites like Starlink; space stations such as the ISS; scientific satellites like the Hubble; Earth observation satellites from companies like Planet Labs, Umbra, and HawkEye 360; GPS; miniature CubeSats for education and research; and military/defense satellites.

Loading next visibility...
Identifier
67625, 2026-020J
Orbit
LEO
Country
Flag of USUS
Related business
Manufacturer
SpaceX/Seattle
Mission
Operational spacecraft
Bus & Motor
STARLINK V2MO, Unknown motor
Mass
575 kg wet, ~530 kg dry
Launch date (UTC)
2026-01-30 (1 month ago)
Launch vehicle
FALCON 9
Launch site
Air Force Eastern Test Range (AFETR)
Object type
Payload
Rocket body
Debris
Shape & HBR
Unknown shape, 17.7 m
Radar Cross Section
RCS unknown

Expand to show TLE details & history
Last TLE update: 10 hours ago

TLE from 10 hours ago
0 STARLINK-36438
1 67625U 26020J   26071.91668981 -.01927862  00000-0 -27565-1 0  9993
2 67625  43.0001 122.8790 0001447 269.0232  28.4994 15.58784659  6027
Epoch: 2026-03-12T22:00Z
TLE epoch observation values (Epoch: 2026-03-12T22:00:01.999Z)
Latitude
-37.38709°
Longitude
-72.2692°
Altitude
401.265 km
Speed
7.671 km/s
True Right ascension
04h 33m 11s
True Declination
-37° 12' 45"
Sunlit
Object was in daylight at epoch
Visualization orbit readout
Latitude
Unknown
Longitude
Unknown
Altitude
Unknown
Speed
Unknown
Apparent Right ascension
Unknown
Apparent Declination
Unknown
Sunlit
N/A
Visualization observer readout
Local Sidereal Time
11:58:39
Azimuth
Unknown
Elevation
Unknown
Doppler factor
Unknown
Orbital elements
Apogee altitude
394.125 km
Perigee altitude
392.165 km
Semi-major axis
6,771.282 km
Eccentricity
0.00014
Inclination
43.0001°
RAAN
122.879°
Arg. of periapsis
269.0232°
True anomaly
28.50731°
Mean anomaly
28.4994°
Eccentric anomaly
28.50336°
Mean motion
3.89526 °/min
Orbital period
92.42 mins
BSTAR
-0.027565
Loading maneuver chart data...
Computing Atmospheric mass density...
Loading historical data...
Loading historical data...
Loading historical data...
Loading historical data...
Loading historical data...
Loading historical data...
Loading historical data...

Documentation

Showing up to 5 results
|